Location: Newark
(39.0622°N, 106.5590°E)
Time: 00:20:41
(UTC+00:00)

Vanguard 2 Rocket - Pass Details

Date: 25 January 2020
Orbit: 554 x 3327 km, 32.9° (Epoch: 21 February)

Event Time Altitude Azimuth Distance (km) Brightness Sun altitude
Rises 03:29:38 0° 270° (W) 4,135 10.0 27.6°
Reaches altitude 10° 03:32:26 10° 259° (W) 3,491 9.8 27.9°
Maximum altitude 03:40:13 30° 202° (SSW) 3,047 10.5 28.5°
Drops below altitude 10° 03:52:12 10° 150° (SSE) 5,433 12.4 29.3°
Sets 03:58:01 0° 141° (SE) 6,830 12.4 29.7°
